Voltar ao catálogo

CBERS 1 DEB

AtivoPO
NORAD 35387·DEBRIS·🇧🇷 Brazil🇨🇳 China

Lançado Oct 14, 1999 de Taiyuan Satellite Launch Center

Loading…

Próximas Passagens (próximas 24 horas)

TLE

AtualizadoSource: Space-Track

Época: Sep 12, 2026, 10:21 UTC

1 35387U 99057SS  26255.43134798  .00009217  00000-0  92263-3 0  9999
2 35387  98.4928 338.9221 0000458 341.6576  18.4624 14.91659022982244

Acompanhe CBERS 1 DEB em tempo real com AllMySat

Download on the App Store